OBJECT L, 47423

Orbit data source: Space-Track

You're viewing an Uncataloged Satellite

Recently launched and/or uncataloged satellites may have evolving metadata. Metadata may include but not limited to: Owner, Maufacturer, Bus, Motor, and Mission.

OBJECT L, 47423 is a satellite in SSO that was launched on Sun, 24 Jan 2021 UTC launched from the Air Force Eastern Test Range (AFETR). Unknown objects in Earth's orbit typically refer to objects detected orbiting the Earth but have not yet been identified or cataloged. These objects could be anything from previously untracked satellites, spent rocket stages, debris from satellite collisions, or even natural meteoroids temporarily captured by Earth's gravity.

Loading next visibility...
Identifier
47423, 2021-006L
Orbit
SSO
Country
Flag of TBDTBD
Related business
Manufacturer
SpaceX/Seattle
Mission
Spacecraft
Bus & Motor
Unknown
Mass
~100 kg wet, ~100 kg dry
Launch date (UTC)
2021-01-24 (5 years ago)
Launch vehicle
Unknown
Launch site
Air Force Eastern Test Range (AFETR)
Object type
Unknown
Shape & HBR
Cyl, Unknown HBR
Radar Cross Section
0.110 m², Medium (>0.1 m² and < 1m²)

Expand to show TLE details & history
Last TLE update: 6 hours ago

TLE from 6 hours ago
0 OBJECT L
1 47423U 21006L   25288.61551971  .00008307  00000-0  28160-3 0  9997
2 47423  97.2622 335.4042 0011851 357.2661   2.8514 15.30733146262202
Epoch: 2025-10-15T14:46Z
TLE epoch observation values (Epoch: 2025-10-15T14:46:20.902Z)
Latitude
-0°
Longitude
89.43006°
Altitude
468.621 km
Speed
7.636 km/s
True Right ascension
22h 21m 37s
True Declination
0° 00' 00"
Sunlit
Object was in full shadow at epoch
Visualization orbit readout
Latitude
Unknown
Longitude
Unknown
Altitude
Unknown
Speed
Unknown
Apparent Right ascension
Unknown
Apparent Declination
Unknown
Sunlit
N/A
Visualization observer readout
Local Sidereal Time
15:06:09
Azimuth
Unknown
Elevation
Unknown
Doppler factor
Unknown
Orbital elements
Apogee altitude
478.685 km
Perigee altitude
462.453 km
Semi-major axis
6,848.706 km
Eccentricity
0.00119
Inclination
97.2622°
RAAN
335.4042°
Arg. of periapsis
357.2661°
True anomaly
2.85817°
Mean anomaly
2.8514°
Eccentric anomaly
2.85478°
Mean motion
3.8294 °/min
Orbital period
94.01 mins
BSTAR
0.0002816
Loading maneuver chart data...
Computing Atmospheric mass density...

Documentation

Showing up to 5 results
|